Regional Weather Roundup
Issued by NWS

Home | Current Version | Previous Version | Graphics & Text | Print | Product List | Glossary On
Versions: 1 2 3 4 5 6 7 8 9 10 11 12 13 14 15 16 17 18 19 20 21 22 23 24 25 26 27 28 29 30 31 32 33 34 35 36 37 38 39 40 41 42 43 44 45 46 47 48 49 50
917
ASUS45 KABQ 211010
RWRNM
NEW MEXICO REGIONAL WEATHER ROUNDUP
NATIONAL WEATHER SERVICE ALBUQUERQUE NM
300 AM MST TUE FEB 21 2017

NOTE: "FAIR" MEANS FEW OR NO CLOUDS BELOW 12,000 FEET AGL WITH NO
       SIGNIFICANT WEATHER OR OBSTRUCTIONS TO VISION.

      THIS PRODUCT IS RELEASED AS TWO VERSIONS.  ONE VERSION NEAR
      THE TOP OF THE HOUR CONTAINING PRELIMINARY DATA FROM ALBUQUERQUE
      AND OTHER STATIONS.  A FINAL VERSION WITH ADDITIONAL DATA IS
      ISSUED ABOUT 10 MINUTES AFTER THE HOUR.

NMZ501-503-504-510>518-211100-
NORTHWEST PLATEAU/NORTHCENTRAL MOUNTAINS

CITY           SKY/WX    TMP DP  RH WIND       PRES   REMARKS
FARMINGTON     FAIR      34  30  85 E10       30.35S WCI  26
LOS ALAMOS     MOCLDY    37  26  63 CALM      30.36S
SANTA FE       FAIR      38  27  64 N10       30.31F WCI  31
TAOS             N/A     28  18  64 E8        30.36S WCI  20
ANGEL FIRE     FAIR      36  25  65 W37G44    30.28R WCI  22

$$
NMZ402-403-502-505>509-211100-
WESTCENTRAL MOUNTAINS/SOUTHWEST MOUNTAINS

CITY           SKY/WX    TMP DP  RH WIND       PRES   REMARKS
GALLUP         FAIR      27  24  89 CALM      30.40F
GRANTS         FAIR      28  26  93 N7        30.41S WCI  20
SILVER CITY    FAIR      40  36  84 NW10      30.33F WCI  34

$$
NMZ407-409-411-412-211100-
SOUTHERN DESERTS

CITY           SKY/WX    TMP DP  RH WIND       PRES   REMARKS
DEMING         FAIR      42  36  79 SW6       30.29F
LAS CRUCES     FAIR      39  33  77 CALM      30.29F
HOLLOMAN AFB   FAIR      40  27  59 NE9       30.29F WCI  34
ALAMOGORDO     FAIR      46  27  46 NE9       30.27F
T OR C         FAIR      46  31  55 NW9       30.29S

$$
NMZ519>523-211100-
CENTRAL VALLEYS/CENTRAL HIGHLANDS

CITY           SKY/WX    TMP DP  RH WIND       PRES   REMARKS
ALBUQUERQUE    FAIR      44  31  60 NW6       30.34R
DOUBLE EAGLE   FAIR      33  29  86 NW9       30.35S WCI  25
MORIARTY ARPT  FAIR      46  32  58 NW20      30.29S
CLINES CORNERS NOT AVBL
BELEN          FAIR      37  30  75 NW8       30.33S WCI  31
SOCORRO        FAIR      41  31  66 NW5       30.30S

$$
NMZ524>526-539-540-211100-
SOUTHCENTRAL MOUNTAINS

CITY           SKY/WX    TMP DP  RH WIND       PRES   REMARKS
RUIDOSO        FAIR      46  25  42 NW14G24   30.31S

$$
NMZ527>531-211100-
NORTHEAST HIGHLANDS/NORTHEAST PLAINS

CITY           SKY/WX    TMP DP  RH WIND       PRES   REMARKS
LAS VEGAS      FAIR      36  14  40 SW6       30.20F WCI  31
RATON          NOT AVBL
CLAYTON        FAIR      42  18  37 W15       30.10F

$$
NMZ532>537-211100-
EASTCENTRAL PLAINS

CITY           SKY/WX    TMP DP  RH WIND       PRES   REMARKS
TUCUMCARI      FAIR      38  21  50 CALM      30.10F
CANNON AFB     FAIR      42  27  54 NW8       30.12F
CLOVIS AIRPORT FAIR      36  25  64 W9        30.12F WCI  29

$$
NMZ028-029-538-211100-
SOUTHEAST PLAINS

CITY           SKY/WX    TMP DP  RH WIND       PRES   REMARKS
ROSWELL        FAIR      37  23  56 S3          N/A
ARTESIA        FAIR      43  27  52 CALM      30.17S
CARLSBAD       FAIR      41  27  57 E6        30.15S
HOBBS          FAIR      41  23  48 W8        30.17F


$$




USA.gov is the U.S. government's official web portal to all federal, state and local government web resources and services.